Location: Grange Rosano
(44.4500°N, 6.9667°E)
Time: 08:43:32
(UTC+00:00)

ALOS - Pass Details

Date: 26 May 2022
Orbit: 682 x 683 km, 97.9° (Epoch: 01 July)

Event Time Altitude Azimuth Distance (km) Brightness Sun altitude
Rises 02:31:12 0° 20° (NNE) 3,055 7.0 -12.4°
Reaches altitude 10° 02:33:36 10° 29° (NNE) 2,135 6.2 -12.1°
Maximum altitude 02:37:57 38° 97° (E) 1,048 3.6 -11.6°
Drops below altitude 10° 02:42:15 10° 165° (SSE) 2,119 4.5 -11.0°
Enters shadow 02:44:35 - 174° (S) 3,015 5.2 -10.7°
